Track COSMOS 2213 now! 10-day predictions COSMOS 2213 is classified as:
1 22184U 92068C 21110.51442091 .00000006 00000-0 -26821-4 0 9993 2 22184 82.5950 106.0849 0004012 82.8323 34.2471 12.62547710313428